• In Österreich
  • Länderverzeichnis
  • Für 7 Tage
  • Wassertemperatur
  • Satellitenkarten
  • Wetterkarte
  • News
  • Widgets
  • user-avatar
    Anmelden

    Stündliche Wetter Cairns

    Heute, 14 August, Dienstag

    Zeit Temperatur Niederschläge Wind Luftdruck Luftfeuchtigkeit
    00:00 +19°C° 0 mm 5 m/S 764 mmHg 95%
    01:00 +19°C° 0 mm 5 m/S 764 mmHg 95%
    02:00 +17°C° 0 mm 5 m/S 764 mmHg 95%
    03:00 +17°C° 0 mm 5 m/S 763 mmHg 95%
    04:00 +17°C° 0 mm 5 m/S 763 mmHg 96%
    05:00 +17°C° 0 mm 5 m/S 764 mmHg 95%
    06:00 +16°C° 0 mm 6 m/S 764 mmHg 95%
    07:00 +16°C° 0 mm 6 m/S 764 mmHg 95%
    08:00 +19°C° 0 mm 6 m/S 764 mmHg 81%
    09:00 +21°C° 0 mm 6 m/S 764 mmHg 66%
    10:00 +24°C° 0 mm 6 m/S 765 mmHg 50%
    11:00 +26°C° 0 mm 6 m/S 764 mmHg 43%
    12:00 +27°C° 0 mm 6 m/S 764 mmHg 36%
    13:00 +28°C° 0 mm 7 m/S 764 mmHg 29%
    14:00 +27°C° 0 mm 7 m/S 763 mmHg 30%
    15:00 +26°C° 0 mm 6 m/S 763 mmHg 32%
    16:00 +26°C° 0 mm 6 m/S 762 mmHg 28%
    17:00 +22°C° 0 mm 6 m/S 763 mmHg 37%
    18:00 +20°C° 0 mm 5 m/S 763 mmHg 47%
    19:00 +16°C° 0 mm 5 m/S 763 mmHg 57%
    20:00 +16°C° 0 mm 5 m/S 763 mmHg 63%
    21:00 +15°C° 0 mm 5 m/S 763 mmHg 70%
    22:00 +15°C° 0 mm 4 m/S 764 mmHg 75%
    23:00 +17°C° 0,1 mm 4 m/S 764 mmHg 81%

    Morgen, 15 August, Mittwoch

    Zeit Temperatur Niederschläge Wind Luftdruck Luftfeuchtigkeit
    00:00 +17°C° 0,1 mm 4 m/S 763 mmHg 87%
    01:00 +18°C° 0,1 mm 4 m/S 763 mmHg 94%
    02:00 +18°C° 0,1 mm 4 m/S 763 mmHg 94%
    03:00 +17°C° 0,1 mm 5 m/S 763 mmHg 95%
    04:00 +17°C° 0,1 mm 5 m/S 762 mmHg 96%
    05:00 +17°C° 0,1 mm 5 m/S 762 mmHg 96%
    06:00 +17°C° 0,1 mm 5 m/S 763 mmHg 96%
    07:00 +17°C° 0,1 mm 5 m/S 763 mmHg 96%
    08:00 +20°C° 0,1 mm 5 m/S 763 mmHg 89%
    09:00 +21°C° 0,1 mm 5 m/S 763 mmHg 81%
    10:00 +23°C° 0,1 mm 6 m/S 763 mmHg 74%
    11:00 +24°C° 0 mm 6 m/S 763 mmHg 68%
    12:00 +26°C° 0 mm 6 m/S 763 mmHg 62%
    13:00 +27°C° 0 mm 6 m/S 762 mmHg 56%
    14:00 +27°C° 0,1 mm 6 m/S 762 mmHg 58%
    15:00 +27°C° 0,1 mm 6 m/S 761 mmHg 60%
    16:00 +26°C° 0,1 mm 6 m/S 761 mmHg 62%
    17:00 +23°C° 0,1 mm 5 m/S 761 mmHg 73%
    18:00 +22°C° 0,1 mm 5 m/S 761 mmHg 83%
    19:00 +20°C° 0,1 mm 4 m/S 762 mmHg 94%
    20:00 +20°C° 0,1 mm 4 m/S 762 mmHg 95%
    21:00 +19°C° 0,1 mm 4 m/S 762 mmHg 96%
    22:00 +19°C° 0,1 mm 4 m/S 762 mmHg 97%
    23:00 +19°C° 0,1 mm 3 m/S 762 mmHg 97%

    übermorgen, 16 August, Donnerstag

    Zeit Temperatur Niederschläge Wind Luftdruck Luftfeuchtigkeit
    00:00 +19°C° 0,1 mm 3 m/S 762 mmHg 97%
    01:00 +19°C° 0,1 mm 3 m/S 762 mmHg 97%
    02:00 +19°C° 0 mm 3 m/S 761 mmHg 97%
    03:00 +19°C° 0 mm 3 m/S 761 mmHg 97%
    04:00 +19°C° 0 mm 3 m/S 760 mmHg 97%
    05:00 +19°C° 0,1 mm 3 m/S 760 mmHg 97%
    06:00 +18°C° 0,1 mm 3 m/S 761 mmHg 97%
    07:00 +18°C° 0,1 mm 3 m/S 761 mmHg 97%
    08:00 +21°C° 0 mm 4 m/S 761 mmHg 88%
    09:00 +23°C° 0 mm 4 m/S 761 mmHg 78%
    10:00 +26°C° 0 mm 4 m/S 762 mmHg 68%
    11:00 +27°C° 0 mm 4 m/S 761 mmHg 63%
    12:00 +29°C° 0 mm 4 m/S 760 mmHg 58%
    13:00 +30°C° 0 mm 4 m/S 760 mmHg 53%
    14:00 +29°C° 0 mm 5 m/S 759 mmHg 57%
    15:00 +29°C° 0 mm 5 m/S 759 mmHg 60%
    16:00 +28°C° 0 mm 5 m/S 758 mmHg 64%
    17:00 +26°C° 0 mm 4 m/S 759 mmHg 73%
    18:00 +23°C° 0 mm 4 m/S 759 mmHg 83%
    19:00 +21°C° 0 mm 4 m/S 760 mmHg 92%
    20:00 +21°C° 0 mm 4 m/S 760 mmHg 93%
    21:00 +21°C° 0 mm 3 m/S 760 mmHg 94%
    22:00 +21°C° 0 mm 3 m/S 761 mmHg 95%
    23:00 +21°C° 0 mm 3 m/S 761 mmHg 95%

    17 August, Freitag

    Zeit Temperatur Niederschläge Wind Luftdruck Luftfeuchtigkeit
    00:00 +20°C° 0 mm 3 m/S 760 mmHg 94%
    01:00 +20°C° 0 mm 3 m/S 760 mmHg 94%
    02:00 +20°C° 0 mm 3 m/S 760 mmHg 95%
    03:00 +20°C° 0 mm 3 m/S 759 mmHg 95%
    04:00 +20°C° 0 mm 3 m/S 759 mmHg 95%
    05:00 +19°C° 0 mm 3 m/S 759 mmHg 96%
    06:00 +19°C° 0 mm 3 m/S 760 mmHg 96%
    07:00 +19°C° 0 mm 3 m/S 760 mmHg 96%
    08:00 +22°C° 0 mm 4 m/S 760 mmHg 86%
    09:00 +25°C° 0 mm 4 m/S 761 mmHg 76%
    10:00 +28°C° 0 mm 4 m/S 761 mmHg 67%
    11:00 +28°C° 0,1 mm 4 m/S 760 mmHg 65%
    12:00 +29°C° 0,1 mm 4 m/S 760 mmHg 63%
    13:00 +30°C° 0,1 mm 4 m/S 759 mmHg 61%
    14:00 +29°C° 0,1 mm 4 m/S 759 mmHg 63%
    15:00 +29°C° 0,1 mm 4 m/S 759 mmHg 64%
    16:00 +29°C° 0,1 mm 4 m/S 758 mmHg 66%
    17:00 +27°C° 0 mm 4 m/S 759 mmHg 75%
    18:00 +25°C° 0 mm 4 m/S 759 mmHg 85%
    19:00 +22°C° 0 mm 4 m/S 760 mmHg 94%
    20:00 +22°C° 0 mm 3 m/S 760 mmHg 95%
    21:00 +22°C° 0 mm 3 m/S 761 mmHg 96%
    22:00 +21°C° 0 mm 3 m/S 761 mmHg 97%
    23:00 +21°C° 0,1 mm 2 m/S 761 mmHg 97%

    18 August, Samstag

    Zeit Temperatur Niederschläge Wind Luftdruck Luftfeuchtigkeit
    00:00 +21°C° 0,1 mm 2 m/S 761 mmHg 98%
    01:00 +20°C° 0,1 mm 2 m/S 760 mmHg 98%
    02:00 +20°C° 0 mm 2 m/S 760 mmHg 98%
    03:00 +20°C° 0 mm 2 m/S 760 mmHg 97%
    04:00 +20°C° 0 mm 2 m/S 760 mmHg 97%
    05:00 +20°C° 0 mm 3 m/S 760 mmHg 96%
    06:00 +20°C° 0 mm 3 m/S 761 mmHg 95%
    07:00 +20°C° 0 mm 3 m/S 761 mmHg 94%
    08:00 +22°C° 0 mm 3 m/S 761 mmHg 84%
    09:00 +26°C° 0 mm 4 m/S 761 mmHg 73%
    10:00 +28°C° 0 mm 4 m/S 762 mmHg 63%
    11:00 +29°C° 0 mm 4 m/S 761 mmHg 60%
    12:00 +30°C° 0 mm 4 m/S 760 mmHg 56%
    13:00 +32°C° 0 mm 5 m/S 760 mmHg 53%
    14:00 +32°C° 0 mm 5 m/S 760 mmHg 55%
    15:00 +30°C° 0 mm 5 m/S 759 mmHg 57%
    16:00 +30°C° 0 mm 5 m/S 759 mmHg 59%
    17:00 +27°C° 0 mm 4 m/S 759 mmHg 69%
    18:00 +25°C° 0 mm 4 m/S 760 mmHg 79%
    19:00 +22°C° 0 mm 3 m/S 761 mmHg 89%
    20:00 +22°C° 0 mm 3 m/S 761 mmHg 91%
    21:00 +21°C° 0 mm 3 m/S 762 mmHg 93%
    22:00 +20°C° 0 mm 3 m/S 762 mmHg 94%
    23:00 +20°C° 0 mm 2 m/S 762 mmHg 93%

    19 August, Sonntag

    Zeit Temperatur Niederschläge Wind Luftdruck Luftfeuchtigkeit
    00:00 +20°C° 0 mm 2 m/S 762 mmHg 91%
    01:00 +19°C° 0 mm 2 m/S 761 mmHg 89%
    02:00 +19°C° 0 mm 3 m/S 761 mmHg 87%
    03:00 +19°C° 0 mm 3 m/S 761 mmHg 85%
    04:00 +19°C° 0 mm 3 m/S 761 mmHg 83%
    05:00 +19°C° 0 mm 3 m/S 761 mmHg 82%
    06:00 +19°C° 0 mm 3 m/S 762 mmHg 81%
    07:00 +19°C° 0 mm 3 m/S 762 mmHg 80%
    08:00 +22°C° 0 mm 4 m/S 762 mmHg 68%
    09:00 +26°C° 0 mm 4 m/S 762 mmHg 57%
    10:00 +29°C° 0 mm 5 m/S 762 mmHg 45%
    11:00 +30°C° 0 mm 5 m/S 762 mmHg 41%
    12:00 +32°C° 0 mm 5 m/S 761 mmHg 38%
    13:00 +33°C° 0 mm 5 m/S 760 mmHg 35%
    14:00 +32°C° 0 mm 5 m/S 760 mmHg 37%
    15:00 +32°C° 0 mm 5 m/S 760 mmHg 39%
    16:00 +30°C° 0 mm 5 m/S 760 mmHg 41%
    17:00 +27°C° 0 mm 4 m/S 760 mmHg 52%
    18:00 +25°C° 0 mm 4 m/S 761 mmHg 63%
    19:00 +21°C° 0 mm 3 m/S 761 mmHg 74%
    20:00 +21°C° 0 mm 3 m/S 761 mmHg 75%
    21:00 +20°C° 0 mm 2 m/S 762 mmHg 76%
    22:00 +20°C° 0 mm 2 m/S 762 mmHg 77%
    23:00 +20°C° 0 mm 2 m/S 762 mmHg 73%
    Mehr zeigen